• MPC Preparation (Info)

  • MPEC 2014-U56 : 2014 US34

    The following Minor Planet Electronic Circular may be linked-to from your own Web pages, but must not otherwise be redistributed electronically.

    A form allowing access to any MPEC is at the bottom of this page.


    Read MPEC 2014-U55 Read MPEC 2014-U57


    M.P.E.C. 2014-U56                                Issued 2014 Oct. 25, 14:18 UT
    
         The Minor Planet Electronic Circulars contain information on unusual
             minor planets and routine data on comets.  They are published
       on behalf of Commission 20 of the International Astronomical Union by the
              Minor Planet Center, Smithsonian Astrophysical Observatory,
                              Cambridge, MA 02138, U.S.A.
    
                 Prepared using the Tamkin Foundation Computer Network
    
                                  MPC@CFA.HARVARD.EDU
                URL https://www.minorplanetcenter.net/    ISSN 1523-6714
    
                                       2014 US34
    
    Observations:
         K14U34S* C2014 10 23.29982 01 58 47.03 +40 40 13.3          20.8 VqEU056G96
         K14U34S  C2014 10 23.30748 01 58 48.27 +40 41 41.1          20.8 VqEU056G96
         K14U34S  C2014 10 23.31982 01 58 50.30 +40 44 02.7          21.2 VqEU056G96
         K14U34S  C2014 10 23.32746 01 58 51.59 +40 45 30.0          20.8 VqEU056G96
         K14U34S  C2014 10 23.44359 01 59 11.79 +41 07 26.6          21.3 VqEU056G96
         K14U34S  C2014 10 23.44443 01 59 11.95 +41 07 36.3          20.5 VqEU056G96
         K14U34S  C2014 10 23.44528 01 59 12.14 +41 07 47.2          20.7 VqEU056G96
         K14U34S  C2014 10 23.44612 01 59 12.31 +41 07 59.2                qEU056G96
         K14U34S  C2014 10 24.42478 02 03 14.92 +44 27 59.0          21.1 VqEU056G96
         K14U34S  C2014 10 24.42528 02 03 15.08 +44 28 04.7          21.6 VqEU056G96
         K14U34S  C2014 10 24.42577 02 03 15.17 +44 28 11.9          20.6 VqEU056G96
         K14U34S  C2014 10 24.42627 02 03 15.32 +44 28 18.1          20.4 VqEU056G96
         K14U34S KC2014 10 24.46617 02 03 24.95 +44 36 42.4          21.2 RoEU056291
         K14U34S KC2014 10 24.46726 02 03 25.19 +44 36 56.0          20.9 RoEU056291
         K14U34S KC2014 10 24.46835 02 03 25.48 +44 37 09.7          21.3 RoEU056291
         K14U34S  C2014 10 25.26959702 07 42.50 +47 38 19.7          20.8 RtEU056H01
         K14U34S  C2014 10 25.27857302 07 44.98 +47 40 26.7          20.7 RtEU056H01
         K14U34S  C2014 10 25.28653402 07 47.20 +47 42 19.4          21.1 RtEU056H01
         K14U34S  C2014 10 25.29154502 07 48.59 +47 43 30.2          21.0 RtEU056H01
    
    Observer details:
    291 LPL/Spacewatch II.  Observer A. F. Tubbiolo.  1.8-m f/2.7 reflector + CCD.
    G96 Mt. Lemmon Survey.  Observers J. A. Johnson, E. J. Christensen.  Measurers
        E. J. Christensen, A. R. Gibbs, A. D. Grauer, R. E. Hill, J. A. Johnson,
        R. A. Kowalski, S. M. Larson, F. C. Shelly.  1.5-m reflector + CCD.
    H01 Magdalena Ridge Observatory, Socorro.  Observers W. H. Ryan, E. V. Ryan.
        Measurer W. H. Ryan.  2.4-m f/8.9 reflector + CCD.
    
    Orbital elements:
    2014 US34                                                Earth MOID = 0.0491 AU
    Epoch 2014 Dec. 9.0 TT = JDT 2457000.5                  MPC
    M 359.92449              (2000.0)            P               Q
    n   0.43078862     Peri.   82.28199     +0.01408673     -0.99985022
    a   1.7363072      Node     6.93468     +0.88143475     +0.00766930
    e   0.4827627      Incl.    4.77708     +0.47209570     +0.01551514
    P   2.29           H   25.2           G   0.15           U   7
    Residuals in seconds of arc
    141023 G96  0.0   0.2-    141023 G96 (0.2+  1.8+)   141024 291  0.1+  0.2+
    141023 G96  0.1-  0.1-    141024 G96  0.4-  0.3-    141025 H01  0.1+  0.1+
    141023 G96  0.1-  0.4+    141024 G96  0.0   0.9-    141025 H01  0.0   0.1-
    141023 G96  0.3+  0.4+    141024 G96  0.2-  0.1+    141025 H01  0.0   0.0
    141023 G96 (0.3-  2.2-)   141024 G96  0.1+  0.0     141025 H01  0.0   0.1-
    141023 G96 (0.3-  2.0-)   141024 291  0.2+  0.3+
    141023 G96  0.1+  0.7-    141024 291  0.1-  0.2+
    
    Ephemeris:
    2014 US34                a,e,i = 1.74, 0.48, 5                   q = 0.8981
    Date    TT    R. A. (2000) Decl.     Delta      r     Elong.  Phase     V
    2014 09 25    01 29 44.1 +09 07 07   0.2695  1.2563   157.5    17.8    23.8
    ...
    2014 10 10    01 38 27.1 +17 32 13   0.1568  1.1512   165.6    12.5    22.2
    ...
    2014 10 18    01 46 32.0 +27 48 45   0.1067  1.0981   161.2    17.0    21.4
    ...
    2014 10 24    02 01 29.4 +42 58 25   0.07590 1.0603   148.5    29.3    21.0
    2014 10 25    02 06 11.9 +46 35 14   0.07167 1.0543   145.3    32.5    21.0
    2014 10 26    02 12 15.9 +50 35 36   0.06779 1.0483   141.6    36.1    20.9
    ...
    2014 11 01    05 34 41.6 +79 25 54   0.05510 1.0139   111.2    65.9    21.3
    ...
    2014 11 09    12 37 59.2 +50 53 33   0.07201 0.9732    74.0   101.9    23.2
    ...
    2014 11 24    13 13 06.5 +21 39 05   0.1475  0.9181    58.1   114.1    25.3
    
    A. U. Tomatic                (C) Copyright 2014 MPC           M.P.E.C. 2014-U56
    

    Read MPEC 2014-U55 Read MPEC 2014-U57


    MPEC number:

    Enter an MPEC number in one of the following forms:

    • 1997-B01 (the full form)
    • J97B01 (the packed version of the full form)
    • B01 (the abbreviated form)